Time,TemperatureF,DewpointF,PressureIn,WindDirection,WindDirectionDegrees,WindSpeedMPH,WindSpeedGustMPH,Humidity,HourlyPrecipIn,Conditions,Clouds,dailyrainin,SoftwareType,DateUTC
2013-03-02 00:00:00,26.5,20.4,29.97,SE,135,0.0,0.4,78,0.00,,,0.03,WUHU216HW,2013-03-02 05:00:00,
2013-03-02 00:05:00,26.5,20.4,29.97,West,270,2.2,2.5,78,0.00,,,0.00,WUHU216HW,2013-03-02 05:05:00,
2013-03-02 00:10:00,26.3,20.4,29.97,NW,315,0.2,2.5,78,0.00,,,0.00,WUHU216HW,2013-03-02 05:10:00,
2013-03-02 00:15:00,26.3,20.4,29.97,WSW,248,1.1,1.1,78,0.00,,,0.00,WUHU216HW,2013-03-02 05:15:00,
2013-03-02 00:20:00,26.3,20.4,29.97,West,270,0.2,2.0,78,0.00,,,0.00,WUHU216HW,2013-03-02 05:20:00,
2013-03-02 00:25:00,26.3,20.6,29.97,WSW,248,0.4,2.0,79,0.00,,,0.00,WUHU216HW,2013-03-02 05:25:00,
2013-03-02 00:30:00,26.3,20.4,29.97,NNW,338,0.7,1.1,78,0.00,,,0.00,WUHU216HW,2013-03-02 05:30:00,
2013-03-02 00:35:00,26.3,20.4,29.96,West,270,0.9,1.8,78,0.00,,,0.00,WUHU216HW,2013-03-02 05:35:00,
2013-03-02 00:40:00,26.1,20.2,29.96,NNW,338,0.4,2.0,78,0.00,,,0.00,WUHU216HW,2013-03-02 05:40:00,
2013-03-02 00:45:00,26.1,20.4,29.96,NW,315,0.4,2.0,79,0.00,,,0.00,WUHU216HW,2013-03-02 05:45:00,
2013-03-02 00:50:00,25.9,20.3,29.96,NW,315,0.4,1.8,79,0.00,,,0.00,WUHU216HW,2013-03-02 05:50:00,
2013-03-02 00:55:00,25.9,20.3,29.96,WSW,248,0.2,1.8,79,0.00,,,0.00,WUHU216HW,2013-03-02 05:55:00,
2013-03-02 01:00:00,25.7,20.1,29.96,West,270,0.9,1.1,79,0.00,,,0.00,WUHU216HW,2013-03-02 06:00:00,
2013-03-02 01:05:00,25.7,20.4,29.96,NE,45,0.4,1.8,80,0.00,,,0.00,WUHU216HW,2013-03-02 06:05:00,
2013-03-02 01:10:00,25.6,20.0,29.96,NNW,338,0.7,3.1,79,0.00,,,0.00,WUHU216HW,2013-03-02 06:10:00,
2013-03-02 01:15:00,25.6,20.0,29.96,West,270,0.0,3.1,79,0.00,,,0.00,WUHU216HW,2013-03-02 06:15:00,
2013-03-02 01:20:00,25.6,20.0,29.96,NNW,338,0.2,3.1,79,0.00,,,0.00,WUHU216HW,2013-03-02 06:20:00,
2013-03-02 01:25:00,25.6,20.0,29.96,WNW,293,0.2,0.4,79,0.00,,,0.00,WUHU216HW,2013-03-02 06:25:00,
2013-03-02 01:30:00,25.7,20.1,29.96,West,270,0.2,0.4,79,0.00,,,0.00,WUHU216HW,2013-03-02 06:30:00,
2013-03-02 01:35:00,25.7,20.1,29.96,NNW,338,0.0,0.9,79,0.00,,,0.00,WUHU216HW,2013-03-02 06:35:00,
2013-03-02 01:40:00,25.7,20.1,29.96,WNW,293,0.0,0.9,79,0.00,,,0.00,WUHU216HW,2013-03-02 06:40:00,
2013-03-02 01:45:00,25.7,20.1,29.96,NNW,338,0.0,0.4,79,0.00,,,0.00,WUHU216HW,2013-03-02 06:45:00,
2013-03-02 01:50:00,25.9,20.3,29.96,NW,315,0.0,0.4,79,0.00,,,0.00,WUHU216HW,2013-03-02 06:50:00,
2013-03-02 01:55:00,25.9,20.3,29.96,ENE,68,0.0,0.2,79,0.00,,,0.00,WUHU216HW,2013-03-02 06:55:00,
2013-03-02 02:00:00,25.9,20.3,29.96,NW,315,0.0,0.2,79,0.00,,,0.00,WUHU216HW,2013-03-02 07:00:00,
2013-03-02 02:05:00,25.9,20.3,29.96,NW,315,0.0,0.0,79,0.00,,,0.00,WUHU216HW,2013-03-02 07:05:00,
2013-03-02 02:10:00,26.1,20.4,29.96,WNW,293,0.0,0.4,79,0.00,,,0.00,WUHU216HW,2013-03-02 07:10:00,
2013-03-02 02:15:00,26.1,20.4,29.96,WNW,293,0.4,0.4,79,0.00,,,0.00,WUHU216HW,2013-03-02 07:15:00,
2013-03-02 02:20:00,26.1,20.4,29.96,West,270,0.0,0.4,79,0.00,,,0.00,WUHU216HW,2013-03-02 07:20:00,
2013-03-02 02:25:00,26.1,20.4,29.96,West,270,0.2,0.4,79,0.00,,,0.00,WUHU216HW,2013-03-02 07:25:00,
2013-03-02 02:30:00,26.1,20.4,29.96,West,270,0.4,0.4,79,0.00,,,0.00,WUHU216HW,2013-03-02 07:30:00,
2013-03-02 02:35:00,26.1,20.4,29.96,NW,315,1.8,1.8,79,0.00,,,0.00,WUHU216HW,2013-03-02 07:35:00,
2013-03-02 02:40:00,26.1,20.4,29.96,NW,315,0.9,1.8,79,0.00,,,0.00,WUHU216HW,2013-03-02 07:40:00,
2013-03-02 02:45:00,25.9,20.3,29.95,NW,315,0.0,1.8,79,0.00,,,0.00,WUHU216HW,2013-03-02 07:45:00,
2013-03-02 02:50:00,26.1,20.4,29.95,WNW,293,0.2,1.1,79,0.00,,,0.00,WUHU216HW,2013-03-02 07:50:00,
2013-03-02 02:55:00,26.1,20.4,29.95,WNW,293,0.4,1.1,79,0.00,,,0.00,WUHU216HW,2013-03-02 07:55:00,
2013-03-02 03:00:00,26.1,20.8,29.95,WNW,293,0.9,0.9,80,0.00,,,0.00,WUHU216HW,2013-03-02 08:00:00,
2013-03-02 03:05:00,26.1,20.8,29.95,NW,315,0.4,1.3,80,0.00,,,0.00,WUHU216HW,2013-03-02 08:05:00,
2013-03-02 03:10:00,26.1,20.8,29.95,WNW,293,0.0,1.3,80,0.00,,,0.00,WUHU216HW,2013-03-02 08:10:00,
2013-03-02 03:15:00,26.1,21.1,29.94,NNW,338,1.3,1.3,81,0.00,,,0.00,WUHU216HW,2013-03-02 08:15:00,
2013-03-02 03:20:00,26.1,21.1,29.94,WNW,293,0.4,1.3,81,0.00,,,0.00,WUHU216HW,2013-03-02 08:20:00,
2013-03-02 03:25:00,26.1,21.1,29.94,WNW,293,0.4,0.4,81,0.00,,,0.00,WUHU216HW,2013-03-02 08:25:00,
2013-03-02 03:30:00,25.9,20.6,29.94,NW,315,0.0,0.2,80,0.00,,,0.00,WUHU216HW,2013-03-02 08:30:00,
2013-03-02 03:35:00,26.1,20.8,29.94,NW,315,0.4,0.4,80,0.00,,,0.00,WUHU216HW,2013-03-02 08:35:00,
2013-03-02 03:40:00,26.1,20.8,29.94,NW,315,0.0,0.4,80,0.00,,,0.00,WUHU216HW,2013-03-02 08:40:00,
2013-03-02 03:45:00,26.1,20.8,29.94,WSW,248,0.0,0.9,80,0.00,,,0.00,WUHU216HW,2013-03-02 08:45:00,
2013-03-02 03:50:00,26.1,20.8,29.94,WNW,293,0.0,1.1,80,0.00,,,0.00,WUHU216HW,2013-03-02 08:50:00,
2013-03-02 03:55:00,26.1,21.1,29.94,WNW,293,0.2,1.1,81,0.00,,,0.00,WUHU216HW,2013-03-02 08:55:00,
2013-03-02 04:00:00,26.1,21.1,29.94,SW,225,0.2,0.4,81,0.00,,,0.00,WUHU216HW,2013-03-02 09:00:00,
2013-03-02 04:05:00,26.1,21.1,29.94,NW,315,0.0,0.2,81,0.00,,,0.00,WUHU216HW,2013-03-02 09:05:00,
2013-03-02 04:10:00,26.1,21.3,29.94,NW,315,0.0,0.4,82,0.00,,,0.00,WUHU216HW,2013-03-02 09:10:00,
2013-03-02 04:15:00,25.9,21.2,29.94,WNW,293,0.0,0.4,82,0.00,,,0.00,WUHU216HW,2013-03-02 09:15:00,
2013-03-02 04:20:00,25.9,21.2,29.94,NW,315,0.0,0.0,82,0.00,,,0.00,WUHU216HW,2013-03-02 09:20:00,
2013-03-02 04:25:00,25.9,21.4,29.94,NW,315,0.0,0.0,83,0.00,,,0.00,WUHU216HW,2013-03-02 09:25:00,
2013-03-02 04:30:00,25.7,21.0,29.94,WNW,293,0.0,0.0,82,0.00,,,0.00,WUHU216HW,2013-03-02 09:30:00,
2013-03-02 04:35:00,25.7,21.2,29.94,NW,315,0.0,0.0,83,0.00,,,0.00,WUHU216HW,2013-03-02 09:35:00,
2013-03-02 04:40:00,25.9,21.4,29.94,WSW,248,0.0,0.0,83,0.00,,,0.00,WUHU216HW,2013-03-02 09:40:00,
2013-03-02 04:45:00,25.9,21.4,29.94,WNW,293,0.0,0.4,83,0.00,,,0.00,WUHU216HW,2013-03-02 09:45:00,
2013-03-02 04:50:00,25.9,21.4,29.94,WNW,293,0.2,0.4,83,0.00,,,0.00,WUHU216HW,2013-03-02 09:50:00,
2013-03-02 04:55:00,25.9,21.4,29.94,WNW,293,0.0,0.2,83,0.00,,,0.00,WUHU216HW,2013-03-02 09:55:00,
2013-03-02 05:00:00,25.9,21.4,29.94,NW,315,0.0,0.0,83,0.00,,,0.00,WUHU216HW,2013-03-02 10:00:00,
2013-03-02 05:05:00,25.9,21.4,29.94,NW,315,0.2,0.2,83,0.00,,,0.00,WUHU216HW,2013-03-02 10:05:00,
2013-03-02 05:10:00,25.9,21.4,29.94,NW,315,0.0,0.2,83,0.00,,,0.00,WUHU216HW,2013-03-02 10:10:00,
2013-03-02 05:15:00,25.9,21.4,29.94,NW,315,0.0,0.0,83,0.00,,,0.00,WUHU216HW,2013-03-02 10:15:00,
2013-03-02 05:20:00,25.7,21.5,29.94,WNW,293,0.0,0.7,84,0.00,,,0.00,WUHU216HW,2013-03-02 10:20:00,
2013-03-02 05:25:00,25.7,21.5,29.94,WNW,293,0.0,0.7,84,0.00,,,0.00,WUHU216HW,2013-03-02 10:25:00,
2013-03-02 05:30:00,25.6,21.4,29.94,WNW,293,0.0,0.4,84,0.00,,,0.00,WUHU216HW,2013-03-02 10:30:00,
2013-03-02 05:35:00,25.6,21.7,29.94,WNW,293,0.7,0.9,85,0.00,,,0.00,WUHU216HW,2013-03-02 10:35:00,
2013-03-02 05:40:00,25.6,21.7,29.94,WNW,293,0.4,0.9,85,0.00,,,0.00,WUHU216HW,2013-03-02 10:40:00,
2013-03-02 05:45:00,25.6,21.7,29.94,WNW,293,0.4,1.1,85,0.00,,,0.00,WUHU216HW,2013-03-02 10:45:00,
2013-03-02 05:50:00,25.6,21.7,29.94,WNW,293,0.0,1.1,85,0.00,,,0.00,WUHU216HW,2013-03-02 10:50:00,
2013-03-02 05:55:00,25.6,21.7,29.94,West,270,0.0,0.0,85,0.00,,,0.00,WUHU216HW,2013-03-02 10:55:00,
2013-03-02 06:00:00,25.6,21.7,29.94,West,270,0.0,0.0,85,0.00,,,0.00,WUHU216HW,2013-03-02 11:00:00,
2013-03-02 06:31:00,25.6,21.7,29.94,NW,315,0.2,0.2,85,0.00,,,0.00,WUHU216HW,2013-03-02 11:31:00,
2013-03-02 06:36:00,25.6,21.7,29.94,NW,315,0.0,0.2,85,0.00,,,0.00,WUHU216HW,2013-03-02 11:36:00,
2013-03-02 06:41:00,25.6,21.7,29.94,NW,315,0.0,0.0,85,0.00,,,0.00,WUHU216HW,2013-03-02 11:41:00,
2013-03-02 06:46:00,25.4,21.5,29.94,West,270,0.7,0.7,85,0.00,,,0.00,WUHU216HW,2013-03-02 11:46:00,
2013-03-02 06:51:00,25.4,21.5,29.94,West,270,0.7,0.7,85,0.00,,,0.00,WUHU216HW,2013-03-02 11:51:00,
2013-03-02 07:12:00,25.2,21.3,29.95,WSW,248,0.0,0.0,85,0.00,,,0.00,WUHU216HW,2013-03-02 12:12:00,
2013-03-02 07:17:00,25.2,21.3,29.95,WSW,248,0.0,0.0,85,0.00,,,0.00,WUHU216HW,2013-03-02 12:17:00,
2013-03-02 07:29:00,25.4,21.3,29.95,WNW,293,2.7,2.7,84,0.00,,,0.00,WUHU216HW,2013-03-02 12:29:00,
2013-03-02 07:34:00,25.2,21.1,29.95,WNW,293,1.1,2.7,84,0.00,,,0.00,WUHU216HW,2013-03-02 12:34:00,
2013-03-02 07:39:00,25.2,21.1,29.95,NW,315,1.3,1.3,84,0.00,,,0.00,WUHU216HW,2013-03-02 12:39:00,
2013-03-02 07:44:00,25.2,21.1,29.95,West,270,1.3,1.3,84,0.00,,,0.00,WUHU216HW,2013-03-02 12:44:00,
2013-03-02 07:49:00,25.2,21.1,29.95,NNW,338,0.2,1.3,84,0.00,,,0.00,WUHU216HW,2013-03-02 12:49:00,
2013-03-02 07:54:00,25.2,21.1,29.95,North,0,0.2,0.4,84,0.00,,,0.00,WUHU216HW,2013-03-02 12:54:00,
2013-03-02 07:59:00,25.4,21.3,29.95,SW,225,0.2,0.9,84,0.00,,,0.00,WUHU216HW,2013-03-02 12:59:00,
2013-03-02 08:04:00,25.4,21.0,29.95,West,270,0.9,0.9,83,0.00,,,0.00,WUHU216HW,2013-03-02 13:04:00,
2013-03-02 08:09:00,25.4,21.0,29.96,West,270,0.7,1.1,83,0.00,,,0.00,WUHU216HW,2013-03-02 13:09:00,
2013-03-02 08:14:00,25.4,20.7,29.96,NW,315,0.4,1.6,82,0.00,,,0.00,WUHU216HW,2013-03-02 13:14:00,
2013-03-02 08:19:00,25.4,20.7,29.96,NW,315,3.4,3.4,82,0.00,,,0.00,WUHU216HW,2013-03-02 13:19:00,
2013-03-02 08:24:00,25.2,20.5,29.96,NW,315,0.7,3.4,82,0.00,,,0.00,WUHU216HW,2013-03-02 13:24:00,
2013-03-02 08:29:00,25.0,20.6,29.96,WNW,293,0.4,2.7,83,0.00,,,0.00,WUHU216HW,2013-03-02 13:29:00,
2013-03-02 08:34:00,25.2,20.8,29.96,West,270,0.2,3.6,83,0.00,,,0.00,WUHU216HW,2013-03-02 13:34:00,
2013-03-02 08:39:00,25.2,20.8,29.96,West,270,1.3,3.6,83,0.00,,,0.00,WUHU216HW,2013-03-02 13:39:00,
2013-03-02 08:44:00,25.2,20.8,29.96,West,270,1.3,1.6,83,0.00,,,0.00,WUHU216HW,2013-03-02 13:44:00,
2013-03-02 09:08:00,25.0,20.6,29.96,NNW,338,0.9,0.9,83,0.00,,,0.00,WUHU216HW,2013-03-02 14:08:00,
2013-03-02 09:13:00,25.2,20.8,29.95,NNW,338,0.7,0.9,83,0.00,,,0.00,WUHU216HW,2013-03-02 14:13:00,
2013-03-02 09:18:00,25.0,20.4,29.96,NNW,338,0.9,0.9,82,0.00,,,0.00,WUHU216HW,2013-03-02 14:18:00,
2013-03-02 09:23:00,25.0,20.4,29.96,NNW,338,0.9,0.9,82,0.00,,,0.00,WUHU216HW,2013-03-02 14:23:00,
2013-03-02 09:28:00,25.2,20.5,29.95,WNW,293,0.2,2.0,82,0.00,,,0.00,WUHU216HW,2013-03-02 14:28:00,
2013-03-02 09:31:00,25.2,20.5,29.95,NW,315,2.7,2.7,82,0.00,,,0.00,WUHU216HW,2013-03-02 14:31:00,
2013-03-02 09:33:00,25.2,20.5,29.95,NW,315,2.7,2.7,82,0.00,,,0.00,WUHU216HW,2013-03-02 14:33:00,
2013-03-02 09:38:00,25.2,20.5,29.95,NW,315,2.7,2.7,82,0.00,,,0.00,WUHU216HW,2013-03-02 14:38:00,
2013-03-02 09:52:00,26.3,21.8,29.96,North,0,0.0,0.0,83,0.00,,,0.00,WUHU216HW,2013-03-02 14:52:00,
2013-03-02 09:57:00,26.8,22.3,29.96,NW,315,0.0,1.1,83,0.00,,,0.00,WUHU216HW,2013-03-02 14:57:00,
2013-03-02 10:02:00,27.0,22.5,29.96,SSE,158,0.9,1.1,83,0.00,,,0.00,WUHU216HW,2013-03-02 15:02:00,
2013-03-02 10:07:00,27.4,22.2,29.95,West,270,0.9,0.9,81,0.00,,,0.00,WUHU216HW,2013-03-02 15:07:00,
2013-03-02 10:12:00,27.7,22.3,29.95,NW,315,0.4,2.7,80,0.00,,,0.00,WUHU216HW,2013-03-02 15:12:00,
2013-03-02 10:17:00,27.4,22.2,29.95,West,270,0.2,2.7,81,0.00,,,0.00,WUHU216HW,2013-03-02 15:17:00,
2013-03-02 10:22:00,27.4,22.2,29.95,NW,315,3.4,3.4,81,0.00,,,0.00,WUHU216HW,2013-03-02 15:22:00,
2013-03-02 10:27:00,27.4,21.7,29.95,West,270,0.4,3.4,79,0.00,,,0.00,WUHU216HW,2013-03-02 15:27:00,
2013-03-02 10:32:00,28.1,20.9,29.94,WNW,293,0.7,3.1,74,0.00,,,0.00,WUHU216HW,2013-03-02 15:32:00,
2013-03-02 10:37:00,27.7,20.8,29.95,WSW,248,2.5,3.6,75,0.00,,,0.00,WUHU216HW,2013-03-02 15:37:00,
2013-03-02 10:42:00,27.0,20.1,29.94,West,270,1.3,3.6,75,0.00,,,0.00,WUHU216HW,2013-03-02 15:42:00,
2013-03-02 10:47:00,27.0,20.3,29.94,WSW,248,2.0,2.5,76,0.00,,,0.00,WUHU216HW,2013-03-02 15:47:00,
2013-03-02 10:52:00,27.2,20.5,29.94,WNW,293,2.5,2.5,76,0.00,,,0.00,WUHU216HW,2013-03-02 15:52:00,
2013-03-02 10:57:00,27.2,20.5,29.95,WNW,293,0.4,2.5,76,0.00,,,0.00,WUHU216HW,2013-03-02 15:57:00,
2013-03-02 11:02:00,27.4,20.7,29.94,NW,315,0.4,1.1,76,0.00,,,0.00,WUHU216HW,2013-03-02 16:02:00,
2013-03-02 11:07:00,27.7,20.8,29.94,NNW,338,0.4,1.6,75,0.00,,,0.00,WUHU216HW,2013-03-02 16:07:00,
2013-03-02 11:12:00,28.3,21.3,29.94,East,90,1.1,1.6,75,0.00,,,0.00,WUHU216HW,2013-03-02 16:12:00,
2013-03-02 11:17:00,29.2,21.9,29.94,West,270,1.1,1.6,74,0.00,,,0.00,WUHU216HW,2013-03-02 16:17:00,
2013-03-02 11:22:00,29.2,21.2,29.94,NW,315,1.1,2.2,72,0.00,,,0.00,WUHU216HW,2013-03-02 16:22:00,
2013-03-02 11:27:00,29.0,21.4,29.94,West,270,2.5,2.5,73,0.00,,,0.00,WUHU216HW,2013-03-02 16:27:00,
2013-03-02 11:32:00,28.4,20.9,29.94,West,270,0.9,2.7,73,0.00,,,0.00,WUHU216HW,2013-03-02 16:32:00,
2013-03-02 11:37:00,28.4,21.3,29.94,NW,315,2.0,2.7,74,0.00,,,0.00,WUHU216HW,2013-03-02 16:37:00,
2013-03-02 11:42:00,29.0,21.4,29.94,West,270,0.7,2.2,73,0.00,,,0.00,WUHU216HW,2013-03-02 16:42:00,
2013-03-02 11:47:00,29.3,20.8,29.94,WSW,248,3.4,3.4,70,0.00,,,0.00,WUHU216HW,2013-03-02 16:47:00,
2013-03-02 11:52:00,29.3,20.8,29.94,West,270,1.1,3.4,70,0.00,,,0.00,WUHU216HW,2013-03-02 16:52:00,
2013-03-02 11:57:00,29.2,20.3,29.94,NNE,23,4.0,4.0,69,0.00,,,0.00,WUHU216HW,2013-03-02 16:57:00,
2013-03-02 12:02:00,29.0,20.4,29.94,West,270,0.9,4.0,70,0.00,,,0.00,WUHU216HW,2013-03-02 17:02:00,
2013-03-02 12:07:00,29.0,20.4,29.94,WNW,293,3.4,3.4,70,0.00,,,0.00,WUHU216HW,2013-03-02 17:07:00,
2013-03-02 12:12:00,29.3,20.8,29.94,NW,315,1.1,3.4,70,0.00,,,0.00,WUHU216HW,2013-03-02 17:12:00,
2013-03-02 12:17:00,29.5,21.0,29.94,NNE,23,0.4,2.5,70,0.00,,,0.00,WUHU216HW,2013-03-02 17:17:00,
2013-03-02 12:22:00,29.7,21.2,29.94,NNW,338,0.7,2.5,70,0.00,,,0.00,WUHU216HW,2013-03-02 17:22:00,
2013-03-02 12:27:00,29.9,21.2,29.94,NW,315,1.1,1.3,70,0.00,,,0.00,WUHU216HW,2013-03-02 17:27:00,
2013-03-02 12:32:00,29.7,21.2,29.94,NNE,23,2.5,2.5,70,0.00,,,0.00,WUHU216HW,2013-03-02 17:32:00,
2013-03-02 12:37:00,29.7,21.4,29.94,ENE,68,0.4,2.5,71,0.01,,,0.00,WUHU216HW,2013-03-02 17:37:00,
2013-03-02 12:42:00,29.7,21.4,29.94,East,90,0.7,3.1,71,0.01,,,0.00,WUHU216HW,2013-03-02 17:42:00,
2013-03-02 12:47:00,29.7,21.8,29.94,NNW,338,2.2,3.1,72,0.01,,,0.00,WUHU216HW,2013-03-02 17:47:00,
2013-03-02 12:52:00,30.6,22.3,29.94,SSE,158,0.0,2.2,71,0.01,,,0.00,WUHU216HW,2013-03-02 17:52:00,
2013-03-02 12:57:00,31.1,21.8,29.93,WNW,293,0.0,1.8,68,0.01,,,0.00,WUHU216HW,2013-03-02 17:57:00,
2013-03-02 13:02:00,31.0,20.9,29.93,NW,315,0.2,1.8,66,0.01,,,0.00,WUHU216HW,2013-03-02 18:02:00,
2013-03-02 13:07:00,30.6,20.5,29.93,West,270,2.2,2.5,66,0.01,,,0.00,WUHU216HW,2013-03-02 18:07:00,
2013-03-02 13:12:00,29.7,20.8,29.93,WNW,293,2.5,2.7,69,0.01,,,0.00,WUHU216HW,2013-03-02 18:12:00,
2013-03-02 13:17:00,29.2,21.0,29.93,West,270,3.4,3.4,71,0.01,,,0.00,WUHU216HW,2013-03-02 18:17:00,
2013-03-02 13:22:00,29.0,21.1,29.93,NNW,338,2.0,3.4,72,0.01,,,0.00,WUHU216HW,2013-03-02 18:22:00,
2013-03-02 13:27:00,29.0,21.1,29.93,West,270,0.7,2.7,72,0.01,,,0.00,WUHU216HW,2013-03-02 18:27:00,
2013-03-02 13:32:00,29.2,21.6,29.92,WSW,248,0.7,2.0,73,0.01,,,0.00,WUHU216HW,2013-03-02 18:32:00,
2013-03-02 13:37:00,29.2,21.6,29.92,WNW,293,2.0,2.9,73,0.00,,,0.00,WUHU216HW,2013-03-02 18:37:00,
2013-03-02 13:42:00,29.7,22.1,29.92,West,270,1.6,2.9,73,0.00,,,0.00,WUHU216HW,2013-03-02 18:42:00,
2013-03-02 13:47:00,29.5,21.9,29.92,WNW,293,1.1,3.8,73,0.00,,,0.00,WUHU216HW,2013-03-02 18:47:00,
2013-03-02 13:52:00,29.2,21.6,29.92,West,270,2.9,3.8,73,0.00,,,0.00,WUHU216HW,2013-03-02 18:52:00,
2013-03-02 13:57:00,29.2,21.6,29.92,NW,315,2.9,4.0,73,0.00,,,0.00,WUHU216HW,2013-03-02 18:57:00,
2013-03-02 14:02:00,29.5,22.2,29.92,WNW,293,0.0,4.0,74,0.00,,,0.00,WUHU216HW,2013-03-02 19:02:00,
2013-03-02 14:07:00,30.4,22.8,29.92,West,270,0.9,2.0,73,0.00,,,0.00,WUHU216HW,2013-03-02 19:07:00,
2013-03-02 14:12:00,30.8,21.4,29.92,NNE,23,0.2,2.2,68,0.00,,,0.00,WUHU216HW,2013-03-02 19:12:00,
2013-03-02 14:17:00,31.0,21.6,29.91,NW,315,2.7,2.7,68,0.00,,,0.00,WUHU216HW,2013-03-02 19:17:00,
2013-03-02 14:22:00,30.6,22.0,29.92,NNW,338,1.1,2.7,70,0.00,,,0.00,WUHU216HW,2013-03-02 19:22:00,
2013-03-02 14:27:00,30.4,21.8,29.92,SE,135,0.4,2.7,70,0.00,,,0.00,WUHU216HW,2013-03-02 19:27:00,
2013-03-02 14:32:00,29.9,20.9,29.92,ENE,68,0.4,3.8,69,0.00,,,0.00,WUHU216HW,2013-03-02 19:32:00,
2013-03-02 14:37:00,29.9,20.9,29.92,ENE,68,2.5,3.8,69,0.00,,,0.00,WUHU216HW,2013-03-02 19:37:00,
2013-03-02 14:42:00,29.7,21.2,29.92,SE,135,0.4,2.5,70,0.00,,,0.00,WUHU216HW,2013-03-02 19:42:00,
2013-03-02 14:47:00,29.5,20.6,29.92,WNW,293,3.4,3.4,69,0.00,,,0.00,WUHU216HW,2013-03-02 19:47:00,
2013-03-02 14:52:00,29.5,20.6,29.92,WNW,293,4.0,4.0,69,0.00,,,0.00,WUHU216HW,2013-03-02 19:52:00,
2013-03-02 14:57:00,29.7,20.8,29.91,West,270,2.5,4.5,69,0.00,,,0.00,WUHU216HW,2013-03-02 19:57:00,
2013-03-02 15:02:00,29.5,21.2,29.92,NNE,23,0.4,4.5,71,0.00,,,0.00,WUHU216HW,2013-03-02 20:02:00,
2013-03-02 15:07:00,29.5,21.6,29.92,NNW,338,1.1,2.5,72,0.00,,,0.00,WUHU216HW,2013-03-02 20:07:00,
2013-03-02 15:12:00,29.2,21.6,29.92,NW,315,2.5,2.5,73,0.00,,,0.00,WUHU216HW,2013-03-02 20:12:00,
2013-03-02 15:17:00,29.0,22.1,29.92,West,270,1.1,3.4,75,0.00,,,0.00,WUHU216HW,2013-03-02 20:17:00,
2013-03-02 15:22:00,28.8,21.9,29.92,NE,45,0.7,3.4,75,0.00,,,0.00,WUHU216HW,2013-03-02 20:22:00,
2013-03-02 15:27:00,29.0,21.7,29.91,NNW,338,4.3,4.3,74,0.00,,,0.00,WUHU216HW,2013-03-02 20:27:00,
2013-03-02 15:32:00,29.0,21.7,29.92,NW,315,3.1,4.3,74,0.00,,,0.00,WUHU216HW,2013-03-02 20:32:00,
2013-03-02 15:37:00,29.2,21.9,29.91,WNW,293,1.8,3.1,74,0.00,,,0.00,WUHU216HW,2013-03-02 20:37:00,
2013-03-02 15:42:00,29.2,21.9,29.91,West,270,0.7,2.5,74,0.00,,,0.00,WUHU216HW,2013-03-02 20:42:00,
2013-03-02 15:47:00,29.3,22.1,29.91,NW,315,1.8,2.5,74,0.00,,,0.00,WUHU216HW,2013-03-02 20:47:00,
2013-03-02 15:53:00,29.3,22.4,29.92,SW,225,1.3,3.4,75,0.00,,,0.00,WUHU216HW,2013-03-02 20:53:00,
2013-03-02 15:58:00,28.8,21.5,29.92,WNW,293,0.9,3.4,74,0.00,,,0.00,WUHU216HW,2013-03-02 20:58:00,
2013-03-02 16:03:00,28.4,20.9,29.92,WNW,293,2.0,2.9,73,0.00,,,0.00,WUHU216HW,2013-03-02 21:03:00,
2013-03-02 16:08:00,28.4,20.9,29.92,NW,315,2.5,2.9,73,0.00,,,0.00,WUHU216HW,2013-03-02 21:08:00,
2013-03-02 16:13:00,28.4,20.6,29.92,NW,315,1.1,4.7,72,0.00,,,0.00,WUHU216HW,2013-03-02 21:13:00,
2013-03-02 16:18:00,28.1,20.5,29.92,NNW,338,0.9,4.7,73,0.00,,,0.00,WUHU216HW,2013-03-02 21:18:00,
2013-03-02 16:23:00,27.9,20.7,29.92,NW,315,0.7,3.6,74,0.00,,,0.00,WUHU216HW,2013-03-02 21:23:00,
2013-03-02 16:28:00,27.7,20.5,29.92,ENE,68,0.9,3.6,74,0.00,,,0.00,WUHU216HW,2013-03-02 21:28:00,
2013-03-02 16:33:00,27.7,21.1,29.92,West,270,0.0,3.4,76,0.00,,,0.00,WUHU216HW,2013-03-02 21:33:00,
2013-03-02 16:38:00,27.7,20.8,29.92,NW,315,1.1,1.1,75,0.00,,,0.00,WUHU216HW,2013-03-02 21:38:00,
2013-03-02 16:43:00,27.5,20.9,29.92,WNW,293,1.8,2.5,76,0.00,,,0.00,WUHU216HW,2013-03-02 21:43:00,
2013-03-02 16:48:00,27.5,21.3,29.92,WNW,293,2.2,2.5,77,0.00,,,0.00,WUHU216HW,2013-03-02 21:48:00,
2013-03-02 16:53:00,27.4,21.1,29.92,ENE,68,1.8,2.2,77,0.00,,,0.00,WUHU216HW,2013-03-02 21:53:00,
2013-03-02 16:58:00,27.4,21.1,29.92,NE,45,0.2,1.8,77,0.00,,,0.00,WUHU216HW,2013-03-02 21:58:00,
2013-03-02 17:03:00,27.2,20.9,29.92,North,0,1.6,2.9,77,0.00,,,0.00,WUHU216HW,2013-03-02 22:03:00,
2013-03-02 17:08:00,27.2,21.5,29.93,NNE,23,0.4,2.9,79,0.00,,,0.00,WUHU216HW,2013-03-02 22:08:00,
2013-03-02 17:13:00,27.0,21.3,29.93,WSW,248,2.2,2.2,79,0.00,,,0.00,WUHU216HW,2013-03-02 22:13:00,
2013-03-02 17:18:00,27.0,21.6,29.93,WSW,248,1.8,4.0,80,0.00,,,0.00,WUHU216HW,2013-03-02 22:18:00,
2013-03-02 17:23:00,27.0,21.6,29.93,WNW,293,0.4,4.0,80,0.00,,,0.00,WUHU216HW,2013-03-02 22:23:00,
2013-03-02 17:28:00,27.2,21.8,29.93,ESE,113,0.4,1.8,80,0.00,,,0.00,WUHU216HW,2013-03-02 22:28:00,
2013-03-02 17:33:00,27.0,21.6,29.94,WNW,293,0.9,1.8,80,0.00,,,0.00,WUHU216HW,2013-03-02 22:33:00,
2013-03-02 17:38:00,27.0,21.3,29.93,West,270,0.7,1.8,79,0.00,,,0.00,WUHU216HW,2013-03-02 22:38:00,
2013-03-02 17:43:00,27.0,21.3,29.94,WSW,248,3.1,3.1,79,0.00,,,0.00,WUHU216HW,2013-03-02 22:43:00,
2013-03-02 17:48:00,27.0,21.0,29.93,WNW,293,0.7,3.1,78,0.00,,,0.00,WUHU216HW,2013-03-02 22:48:00,
2013-03-02 17:53:00,27.0,21.3,29.93,WNW,293,2.0,2.0,79,0.00,,,0.00,WUHU216HW,2013-03-02 22:53:00,
2013-03-02 17:58:00,26.8,21.2,29.94,NW,315,1.8,2.9,79,0.00,,,0.00,WUHU216HW,2013-03-02 22:58:00,
2013-03-02 18:03:00,26.8,21.4,29.94,WSW,248,1.1,2.9,80,0.00,,,0.00,WUHU216HW,2013-03-02 23:03:00,
2013-03-02 18:08:00,26.6,21.2,29.94,NNW,338,0.7,2.7,80,0.00,,,0.00,WUHU216HW,2013-03-02 23:08:00,
2013-03-02 18:13:00,26.6,21.2,29.94,West,270,2.0,2.7,80,0.00,,,0.00,WUHU216HW,2013-03-02 23:13:00,
2013-03-02 18:18:00,26.6,20.4,29.94,West,270,0.2,2.5,77,0.00,,,0.00,WUHU216HW,2013-03-02 23:18:00,
2013-03-02 18:23:00,26.6,20.4,29.95,WNW,293,1.6,2.5,77,0.00,,,0.00,WUHU216HW,2013-03-02 23:23:00,
2013-03-02 18:28:00,26.5,20.2,29.95,NNW,338,0.9,5.4,77,0.00,,,0.00,WUHU216HW,2013-03-02 23:28:00,
2013-03-02 18:33:00,26.5,20.2,29.95,WNW,293,1.3,5.4,77,0.00,,,0.00,WUHU216HW,2013-03-02 23:33:00,
2013-03-02 18:38:00,26.3,19.4,29.95,West,270,0.7,2.7,75,0.00,,,0.00,WUHU216HW,2013-03-02 23:38:00,
2013-03-02 18:43:00,26.5,19.5,29.95,West,270,1.6,2.5,75,0.00,,,0.00,WUHU216HW,2013-03-02 23:43:00,
2013-03-02 18:48:00,26.3,19.4,29.95,West,270,0.4,1.8,75,0.00,,,0.00,WUHU216HW,2013-03-02 23:48:00,
2013-03-02 18:53:00,26.3,19.7,29.95,NNW,338,2.5,3.6,76,0.00,,,0.00,WUHU216HW,2013-03-02 23:53:00,
2013-03-02 18:58:00,26.1,19.5,29.95,NNW,338,0.4,3.6,76,0.00,,,0.00,WUHU216HW,2013-03-02 23:58:00,
2013-03-02 19:03:00,26.1,19.5,29.95,West,270,0.0,2.5,76,0.00,,,0.00,WUHU216HW,2013-03-03 00:03:00,
2013-03-02 19:08:00,26.1,19.5,29.95,NW,315,0.7,2.5,76,0.00,,,0.00,WUHU216HW,2013-03-03 00:08:00,
2013-03-02 19:13:00,26.1,19.5,29.95,NNW,338,1.1,1.8,76,0.00,,,0.00,WUHU216HW,2013-03-03 00:13:00,
2013-03-02 19:18:00,26.1,19.5,29.95,North,0,0.0,1.8,76,0.00,,,0.00,WUHU216HW,2013-03-03 00:18:00,
2013-03-02 19:23:00,26.1,19.8,29.95,NNE,23,0.0,2.0,77,0.00,,,0.00,WUHU216HW,2013-03-03 00:23:00,
2013-03-02 19:28:00,26.1,19.8,29.95,North,0,0.7,2.0,77,0.00,,,0.00,WUHU216HW,2013-03-03 00:28:00,
2013-03-02 19:33:00,26.1,19.8,29.95,NW,315,0.4,0.7,77,0.00,,,0.00,WUHU216HW,2013-03-03 00:33:00,
2013-03-02 19:38:00,26.1,19.8,29.95,West,270,0.4,0.9,77,0.00,,,0.00,WUHU216HW,2013-03-03 00:38:00,
2013-03-02 19:43:00,26.3,20.0,29.95,NW,315,0.0,0.9,77,0.00,,,0.00,WUHU216HW,2013-03-03 00:43:00,
2013-03-02 19:48:00,26.3,20.4,29.95,NNW,338,0.0,0.4,78,0.00,,,0.00,WUHU216HW,2013-03-03 00:48:00,
2013-03-02 19:53:00,26.3,20.4,29.95,NNW,338,0.7,1.1,78,0.00,,,0.00,WUHU216HW,2013-03-03 00:53:00,
2013-03-02 19:58:00,26.3,20.4,29.95,NW,315,0.4,2.2,78,0.00,,,0.00,WUHU216HW,2013-03-03 00:58:00,
2013-03-02 20:03:00,26.3,20.6,29.95,WNW,293,1.8,2.5,79,0.00,,,0.00,WUHU216HW,2013-03-03 01:03:00,
2013-03-02 20:08:00,26.3,20.6,29.95,NNW,338,0.4,2.5,79,0.00,,,0.00,WUHU216HW,2013-03-03 01:08:00,
2013-03-02 20:13:00,26.3,20.6,29.95,West,270,1.3,1.6,79,0.00,,,0.00,WUHU216HW,2013-03-03 01:13:00,
2013-03-02 20:18:00,26.3,20.6,29.95,NW,315,0.2,1.6,79,0.00,,,0.00,WUHU216HW,2013-03-03 01:18:00,
2013-03-02 20:23:00,26.3,20.6,29.95,NNW,338,0.9,1.8,79,0.00,,,0.00,WUHU216HW,2013-03-03 01:23:00,
2013-03-02 20:28:00,26.5,20.8,29.95,WSW,248,0.2,1.8,79,0.00,,,0.00,WUHU216HW,2013-03-03 01:28:00,
2013-03-02 20:33:00,26.5,20.8,29.95,NW,315,2.7,2.7,79,0.00,,,0.00,WUHU216HW,2013-03-03 01:33:00,
2013-03-02 20:38:00,26.5,20.8,29.95,WNW,293,0.7,3.4,79,0.00,,,0.00,WUHU216HW,2013-03-03 01:38:00,
2013-03-02 20:43:00,26.5,21.1,29.96,NW,315,1.3,3.4,80,0.00,,,0.00,WUHU216HW,2013-03-03 01:43:00,
2013-03-02 20:48:00,26.5,21.1,29.96,NW,315,1.8,2.0,80,0.00,,,0.00,WUHU216HW,2013-03-03 01:48:00,
2013-03-02 20:53:00,26.5,21.1,29.96,NW,315,0.7,2.0,80,0.00,,,0.00,WUHU216HW,2013-03-03 01:53:00,
2013-03-02 20:58:00,26.5,21.1,29.96,NW,315,1.1,1.8,80,0.00,,,0.00,WUHU216HW,2013-03-03 01:58:00,
2013-03-02 21:03:00,26.5,21.1,29.96,NNW,338,0.9,1.1,80,0.00,,,0.00,WUHU216HW,2013-03-03 02:03:00,
2013-03-02 21:08:00,26.6,21.2,29.96,West,270,0.4,0.9,80,0.00,,,0.00,WUHU216HW,2013-03-03 02:08:00,
2013-03-02 21:13:00,26.6,21.2,29.96,West,270,0.9,1.1,80,0.00,,,0.00,WUHU216HW,2013-03-03 02:13:00,
2013-03-02 21:18:00,26.6,21.2,29.96,NNW,338,1.1,1.1,80,0.00,,,0.00,WUHU216HW,2013-03-03 02:18:00,
2013-03-02 21:23:00,26.6,21.2,29.96,West,270,0.2,1.8,80,0.00,,,0.00,WUHU216HW,2013-03-03 02:23:00,
2013-03-02 21:28:00,26.6,21.5,29.96,North,0,0.4,2.0,81,0.00,,,0.00,WUHU216HW,2013-03-03 02:28:00,
2013-03-02 21:33:00,26.6,21.5,29.96,NNW,338,1.1,2.0,81,0.00,,,0.00,WUHU216HW,2013-03-03 02:33:00,
2013-03-02 21:38:00,26.6,21.5,29.96,NW,315,2.5,2.5,81,0.00,,,0.00,WUHU216HW,2013-03-03 02:38:00,
2013-03-02 21:43:00,26.6,21.5,29.96,West,270,0.0,2.5,81,0.00,,,0.00,WUHU216HW,2013-03-03 02:43:00,
2013-03-02 21:48:00,26.6,21.5,29.96,West,270,2.2,2.2,81,0.00,,,0.00,WUHU216HW,2013-03-03 02:48:00,
2013-03-02 21:53:00,26.6,21.8,29.96,WNW,293,0.7,3.6,82,0.00,,,0.00,WUHU216HW,2013-03-03 02:53:00,
2013-03-02 21:58:00,26.6,21.8,29.96,NNW,338,0.4,3.6,82,0.00,,,0.00,WUHU216HW,2013-03-03 02:58:00,
2013-03-02 22:03:00,26.6,21.8,29.96,West,270,1.1,3.4,82,0.00,,,0.00,WUHU216HW,2013-03-03 03:03:00,
2013-03-02 22:08:00,26.6,21.8,29.95,NNE,23,0.0,2.0,82,0.00,,,0.00,WUHU216HW,2013-03-03 03:08:00,
2013-03-02 22:13:00,26.6,21.8,29.96,West,270,1.1,1.1,82,0.00,,,0.00,WUHU216HW,2013-03-03 03:13:00,
2013-03-02 22:18:00,26.6,21.8,29.96,West,270,0.4,2.0,82,0.00,,,0.00,WUHU216HW,2013-03-03 03:18:00,
2013-03-02 22:23:00,26.6,21.8,29.96,WSW,248,0.9,2.0,82,0.00,,,0.00,WUHU216HW,2013-03-03 03:23:00,
2013-03-02 22:28:00,26.6,21.8,29.95,NW,315,0.4,2.2,82,0.00,,,0.00,WUHU216HW,2013-03-03 03:28:00,
2013-03-02 22:33:00,26.8,22.3,29.95,WNW,293,0.2,2.2,83,0.00,,,0.00,WUHU216HW,2013-03-03 03:33:00,
2013-03-02 22:38:00,26.8,22.3,29.95,NNW,338,0.2,1.8,83,0.00,,,0.00,WUHU216HW,2013-03-03 03:38:00,
2013-03-02 22:43:00,26.8,22.3,29.95,WNW,293,1.6,1.6,83,0.00,,,0.00,WUHU216HW,2013-03-03 03:43:00,
2013-03-02 22:48:00,26.8,22.3,29.95,NW,315,1.8,1.8,83,0.00,,,0.00,WUHU216HW,2013-03-03 03:48:00,
2013-03-02 22:53:00,26.8,22.3,29.95,WSW,248,0.2,1.8,83,0.00,,,0.00,WUHU216HW,2013-03-03 03:53:00,
2013-03-02 22:58:00,26.8,22.3,29.94,West,270,0.7,1.8,83,0.00,,,0.00,WUHU216HW,2013-03-03 03:58:00,
2013-03-02 23:03:00,26.8,22.3,29.95,NW,315,0.0,1.6,83,0.00,,,0.00,WUHU216HW,2013-03-03 04:03:00,
2013-03-02 23:08:00,26.8,22.3,29.95,NW,315,1.1,2.0,83,0.00,,,0.00,WUHU216HW,2013-03-03 04:08:00,
2013-03-02 23:13:00,26.8,22.3,29.94,West,270,1.3,2.0,83,0.00,,,0.00,WUHU216HW,2013-03-03 04:13:00,
2013-03-02 23:18:00,26.8,22.3,29.94,NW,315,0.0,1.3,83,0.00,,,0.00,WUHU216HW,2013-03-03 04:18:00,
2013-03-02 23:23:00,26.8,22.6,29.94,WNW,293,0.4,1.3,84,0.00,,,0.00,WUHU216HW,2013-03-03 04:23:00,
2013-03-02 23:28:00,26.8,22.3,29.94,NW,315,0.7,1.6,83,0.00,,,0.00,WUHU216HW,2013-03-03 04:28:00,
2013-03-02 23:33:00,26.8,22.3,29.94,West,270,0.9,1.6,83,0.00,,,0.00,WUHU216HW,2013-03-03 04:33:00,
2013-03-02 23:38:00,26.6,22.2,29.94,WNW,293,0.0,1.3,83,0.00,,,0.00,WUHU216HW,2013-03-03 04:38:00,
2013-03-02 23:43:00,26.6,22.4,29.94,NW,315,0.0,1.3,84,0.00,,,0.00,WUHU216HW,2013-03-03 04:43:00,
2013-03-02 23:48:00,26.6,22.4,29.94,NNW,338,0.4,1.3,84,0.00,,,0.00,WUHU216HW,2013-03-03 04:48:00,
2013-03-02 23:53:00,26.6,22.4,29.94,NW,315,0.2,1.6,84,0.00,,,0.00,WUHU216HW,2013-03-03 04:53:00,
2013-03-02 23:58:00,26.6,22.4,29.94,West,270,0.2,1.6,84,0.00,,,0.00,WUHU216HW,2013-03-03 04:58:00,